Regional Weather Roundup
Issued by NWS

Home | Current Version | Previous Version | Text Only | Print | Product List | Glossary On
Versions: 1 2 3 4 5 6 7 8 9 10 11 12 13 14 15 16 17 18 19 20 21 22 23 24 25 26 27 28 29 30 31 32 33 34 35 36 37 38 39 40 41 42 43 44 45 46 47 48 49 50
000
ASUS43 KMPX 281810
RWRMN
WEATHER ROUNDUP FOR MINNESOTA
NATIONAL WEATHER SERVICE TWIN CITIES/CHANHASSEN MN
1200 PM CST TUE JAN 28 2020


NOTE: "FAIR" INDICATES FEW OR NO CLOUDS BELOW 12,000 FEET WITH NO
SIGNIFICANT WEATHER AND/OR OBSTRUCTIONS TO VISIBILITY. N/A MEANS
CURRENT SKY AND/OR WEATHER CONDITIONS ARE NOT AVAILABLE.

MNZ060>063-068>070-281900-
   Twin Cities Metro

CITY           SKY/WX    TMP DP  RH WIND       PRES   REMARKS
TWIN CITIES    FLURRIES  19  13  77 NW3       30.15F
6HR MIN TEMP:  18; 6HR MAX TEMP:  20; 6HR PCP: TRACE;

ST PAUL        CLOUDY    17  12  80 N3        30.17F
CRYSTAL        CLOUDY    18  13  80 N3        30.14F
BLAINE         FLURRIES  18  14  86 N6        30.15F WCI   9
LAKEVILLE      LGT SNOW  21  18  86 CALM      30.14F
EDEN PRAIRIE   CLOUDY    19  13  77 VRB3      30.14F
6HR MIN TEMP:  18; 6HR MAX TEMP:  20;

SOUTH ST PAUL  LGT SNOW  19  15  84 N3        30.15F
LAKE ELMO      CLOUDY    18  16  93 CALM      30.16S
$$
MNZ001>005-007-008-013>017-022>024-027-028-281900-
   Northwest Minnesota

CITY           SKY/WX    TMP DP  RH WIND       PRES   REMARKS
BEMIDJI        LGT SNOW  11   9  90 SE5       30.11F WCI   3
HALLOCK        LGT SNOW  12  10  92 S6        30.16F WCI   3
ROSEAU         FLURRIES  12   9  85 SE3       30.15F
WARROAD        FLURRIES  12   9  85 E8        30.15F WCI   1
THIEF RVR FALL FLURRIES  13   7  77 E7        30.15F WCI   3
CROOKSTON      FLURRIES  10   7  85 CALM      30.16F
FOSSTON        LGT SNOW   9   7  92 CALM      30.13S
DETROIT LAKES  CLOUDY    12  10  92 CALM      30.11F
PARK RAPIDS    CLOUDY    11   6  81 E3        30.10F
MAHNOMEN       CLOUDY     8   5  89 CALM      30.12S
$$
MNZ006-009>011-018-025>026-281900-
   North Central Minnesota

CITY           SKY/WX    TMP DP  RH WIND       PRES   REMARKS
BAUDETTE       FLURRIES  14   9  80 S7        30.13F WCI   4
FLAG ISLAND    FLURRIES  14  10  85 S3        30.14F
INTL FALLS     CLOUDY    16   9  74 SE3       30.13F
6HR MIN TEMP:  13; 6HR MAX TEMP:  17; 6HR PCP: TRACE;

WASKISH        LGT SNOW  16   9  73 CALM      30.14F
BIG FORK       CLOUDY    16   9  73 CALM      30.17F
LONGVILLE      LGT SNOW  12   7  79 NE3       30.12F
GRAND RAPIDS   FLURRIES  15   9  76 NE6       30.13F WCI   6
CRANE LAKE     CLOUDY    16  10  79 N5        30.17F WCI   9
ORR            MIX PCPN  16   9  73 CALM      30.10F
COOK           FLURRIES  18  10  73 CALM      30.11F
WALKER         FLURRIES  11   9  90 E5        30.11F WCI   3
$$
MNZ012-019>021-037-281900-
   Northeast Minnesota

CITY           SKY/WX    TMP DP  RH WIND       PRES   REMARKS
DULUTH         CLOUDY    19  10  68 N3        30.09F
6HR MIN TEMP:  12; 6HR MAX TEMP:  19; 6HR PCP: TRACE;

ELY            FLURRIES  14  10  85 NE3       30.11F
HIBBING        LGT SNOW  16   8  71 N6        30.11F WCI   7
EVELETH        CLOUDY    18  10  73 NE5       30.11F WCI  11
DULUTH HARBOR    N/A     19  10  68 SW5       30.16F WCI  13
TWO HARBORS    CLOUDY    19   9  63 NE5       30.10F WCI  13
SILVER BAY     CLOUDY    19   9  63 CALM      30.10F
GRAND MARAIS     N/A     25  14  63 VRB3      30.13F
G MARAIS ARPRT FAIR      18   9  68 N6        30.05F WCI   9
$$
MNZ029>031-032-039>041-046>048-054>057-064-281900-
   West Central Minnesota

CITY           SKY/WX    TMP DP  RH WIND       PRES   REMARKS
FERGUS FALLS   FLURRIES   9   3  78 S7        30.16S WCI  -3
WHEATON        LGT SNOW  12   9  85 SE3       30.17S
MORRIS         FLURRIES  10   3  72 CALM      30.14F
ALEXANDRIA     CLOUDY    13  10  88 CALM      30.11F FOG
ELBOW LAKE     FLURRIES   8   5  89 SE3       30.14F
WADENA         LGT SNOW  10   9  92 E5        30.11F WCI   2
GLENWOOD       LGT SNOW  12  12 100 CALM      30.12F
APPLETON       LGT SNOW  10   9  92 CALM      30.17S VSB 3/4
BENSON         FLURRIES  10   5  79 CALM      30.15F
ORTONVILLE     LGT SNOW  16  12  86 CALM      30.14F VSB 3/4
MADISON        CLOUDY    16  12  86 CALM      30.15F FOG
WILLMAR        FLURRIES  14   9  79 SW5       30.17F WCI   6
$$
MNZ033>034-036-042>043-049>051-058-059-281900-
   Central Minnesota

CITY           SKY/WX    TMP DP  RH WIND       PRES   REMARKS
ST CLOUD       CLOUDY    14  11  87 VRB5      30.14F WCI   6
6HR MIN TEMP:  14; 6HR MAX TEMP:  16; 6HR PCP: TRACE;

PAYNESVILLE    CLOUDY    16  16 100 CALM      30.13F FOG
AITKIN         CLOUDY    12   7  79 CALM      30.12F
PINE RIVER     FLURRIES  10   7  85 E3        30.15F
BRAINERD       LGT SNOW  16   9  74 CALM      30.13S
STAPLES        FLURRIES  10   9  92 CALM      30.12F
LONG PRAIRIE   CLOUDY    14  12  92 CALM      30.12F FOG
CAMP RIPLEY    FLURRIES  12   9  90 CALM      30.15
LITCHFIELD       N/A     18  18 100 CALM      30.14F
BUFFALO        LGT SNOW  17  13  84 MISG      30.16F
MAPLE LAKE     LGT SNOW  18  16  90 CALM      30.15F
HUTCHINSON     LGT SNOW  16  14  93 CALM      30.15F
$$
MNZ037-044-045-052-053-281900-
   East Central Minnesota

CITY           SKY/WX    TMP DP  RH WIND       PRES   REMARKS
PRINCETON      FLURRIES  16  12  86 CALM      30.14F
MORA           FLURRIES  18  10  73 E3        30.16F
CAMBRIDGE      FLURRIES  18   9  68 CALM      30.15F
RUSH CITY      CLOUDY    16  10  77 CALM      30.15F
MOOSE LAKE     CLOUDY    18   9  68 NW3       30.12F
HINCKLEY       FLURRIES  18  10  73 CALM      30.14F
CLOQUET          N/A     18   9  68 CALM      30.11F
MCGREGOR       CLOUDY    18  10  73 CALM      30.13F
$$
MNZ071>073-080-081-089-090-097-098-281900-
   Southwest Minnesota

CITY           SKY/WX    TMP DP  RH WIND       PRES   REMARKS
MONTEVIDEO     LGT SNOW  10   7  85 CALM      30.15F
GRANITE FALLS  LGT SNOW  15  13  92 CALM      30.17F
CANBY          CLOUDY    22  20  93 CALM      30.14F FOG
MARSHALL       CLOUDY    18  16  92 W3        30.15F FOG
REDWOOD FALLS  CLOUDY    13  10  88 VRB3      30.15F
OLIVIA         LGT SNOW  10   9  92 N3        30.14F
PIPESTONE      SUNNY     18  16  93 CALM      30.09F
WINDOM         CLOUDY    14  12  92 CALM      30.11F FOG
WORTHINGTON    LGT SNOW  21  18  88 N3        30.11F FOG
SLAYTON        CLOUDY    15  13  92 CALM      30.12S FOG
$$
MNZ065>067-074>077-082>085-091>093-281900-
   South Central Minnesota

CITY           SKY/WX    TMP DP  RH WIND       PRES   REMARKS
MANKATO        LGT SNOW N/A N/A N/A MISG        N/A
NEW ULM        LGT SNOW  12   9  85 CALM      30.15F
ST JAMES       CLOUDY    16  12  86 CALM      30.16F
FAIRMONT       FLURRIES  19  15  84 NW6       30.14F WCI  11
GLENCOE        CLOUDY    16  13  91 CALM      30.14F
FARIBAULT      FAIR     N/A N/A N/A CALM      30.13F
OWATONNA       CLOUDY    18  16  93 CALM      30.12F
WASECA         CLOUDY    14  12  92 CALM      30.14F
ALBERT LEA     LGT SNOW  14  12  92 CALM      30.12F
$$
MNZ078>079-086>088-094>096-281900-
   Southeast Minnesota

CITY           SKY/WX    TMP DP  RH WIND       PRES   REMARKS
ROCHESTER      CLOUDY    19  15  84 N8        30.10F FOG     WCI   9
6HR MIN TEMP:  17; 6HR MAX TEMP:  20; 6HR PCP: TRACE;

RED WING       CLOUDY    18  12  79 N3        30.15S
STANTON        LGT SNOW  20  16  84 NW3       30.13F
DODGE CENTER   CLOUDY    19  18  93 CALM      30.11F
WINONA         CLOUDY    21  18  86 N6        30.16F WCI  14
AUSTIN         MIX PCPN  19  18  93 CALM      30.12S
PRESTON        CLOUDY    18  16  93 N3        30.11F FOG
$$
ABBREVIATIONS USED IN REMARKS
   TC - TEMPERATURES IN CELSIUS
  WCI - WIND CHILL INDEX
   HX - HEAT INDEX
  VSB - VISIBILITY
$$




USA.gov is the U.S. government's official web portal to all federal, state and local government web resources and services.